Theta_e
330 330 331 330 329 329 325 326 324 324 324 324 324 325 325 326 326 327 325 326 323 322 319 318 322 321 321 320 316 316 315 315
330 330 330 329 329 328 325 325 323 324 323 323 323 323 323 323 323 323 322 323 321 316 319 319 318 322 317 316 316 316 314 314
330 331 330 329 329 327 323 323 323 323 323 323 322 321 320 320 318 318 320 318 315 315 319 318 318 314 312 315 315 314 314 315
330 331 331 330 329 327 324 323 323 322 322 321 321 319 319 320 320 320 320 317 315 314 314 314 313 314 315 312 314 315 313 314
329 331 331 329 329 326 324 323 322 322 322 321 320 318 316 315 316 316 314 313 314 315 313 313 312 316 315 311 314 314 316 316
330 331 332 330 329 326 324 325 322 323 322 320 317 315 315 315 314 313 313 313 315 315 316 315 315 316 314 316 318 319 319 319
329 331 332 331 329 327 324 322 322 322 322 321 318 317 317 315 312 313 313 312 313 314 317 317 315 315 317 318 319 319 320 321
327 333 332 331 331 328 324 323 323 322 321 321 321 320 318 317 313 311 310 312 312 313 314 315 318 317 319 320 319 319 320 318
327 332 332 331 331 328 325 324 324 322 321 321 320 321 319 317 314 312 311 312 311 312 313 315 315 319 319 319 320 319 319 315
326 331 332 331 331 329 326 324 322 322 320 321 321 321 321 318 314 313 311 312 312 312 314 313 318 318 318 318 318 317 316 314
325 328 333 331 331 329 326 323 322 323 323 321 321 321 321 321 318 313 313 312 313 314 315 315 317 318 319 318 318 316 316 316
325 327 333 332 331 330 327 324 323 324 322 322 322 321 322 321 320 318 316 314 315 315 316 317 319 319 319 320 320 318 317 318
325 327 333 332 331 330 328 325 323 322 324 322 322 321 322 322 321 320 320 320 316 316 316 317 318 320 319 319 320 319 319 318
326 327 331 333 332 330 329 327 324 325 323 323 324 323 323 323 323 322 321 320 318 316 316 316 316 319 320 318 319 320 321 319
327 327 329 332 332 331 330 328 326 325 326 325 322 323 323 322 323 323 323 323 321 320 319 318 318 319 320 320 320 321 321 320
324 327 328 330 332 331 331 329 327 326 326 327 326 323 323 322 322 323 324 325 323 322 322 321 321 321 321 322 322 322 321 321
322 322 326 328 330 331 331 330 329 326 326 327 327 327 326 325 324 324 323 323 324 323 323 323 322 322 323 322 321 322 322 321
321 321 322 324 328 329 331 331 330 329 327 327 327 326 327 326 326 326 325 324 323 323 323 323 323 322 322 322 323 322 322 321
322 322 322 321 322 328 329 330 331 330 329 327 327 327 327 326 326 326 326 325 324 324 323 323 324 324 323 323 322 322 321 322
Wind_Speed
18 17 18 16 16 20 15 13 11 8 8 8 7 9 14 26 29 37 49 56 54 50 48 42 35 34 31 30 27 23 22 17
22 20 20 18 20 22 16 15 13 11 12 12 11 18 27 34 39 44 45 52 53 50 42 37 32 32 28 28 26 21 23 18
24 24 22 21 22 19 16 16 17 16 15 16 18 23 27 32 32 39 53 50 47 47 37 34 32 28 27 26 24 24 24 24
28 27 25 23 24 20 16 18 18 18 22 26 31 33 33 33 32 25 31 36 40 40 41 34 31 34 36 30 29 26 28 27
31 29 27 26 22 19 17 21 22 21 24 28 35 42 42 37 34 36 37 37 36 30 31 30 33 35 30 28 26 25 22 22
31 31 28 24 24 22 20 24 26 24 25 35 44 42 36 34 39 34 35 33 31 34 33 38 40 33 32 29 26 24 23 21
28 31 27 26 24 25 25 27 30 27 29 36 40 38 36 37 41 37 37 37 41 42 37 32 35 32 32 29 26 22 25 23
25 34 31 29 31 27 29 28 31 30 31 35 38 39 40 39 43 40 38 41 45 43 38 33 29 31 29 25 30 26 24 24
26 33 32 32 33 29 31 31 34 32 35 33 37 39 41 42 46 44 46 48 51 43 40 36 35 29 28 29 28 30 27 25
20 30 35 33 34 33 31 33 32 34 35 35 35 38 43 41 49 47 52 52 47 46 44 40 32 31 31 31 31 29 28 29
26 28 36 35 34 33 33 31 32 34 36 37 36 36 37 37 43 54 51 50 49 47 43 40 36 32 32 31 32 31 30 31
26 27 36 34 33 32 32 29 35 35 35 38 39 37 37 37 42 46 50 52 53 48 45 43 35 36 34 33 34 33 33 32
15 27 35 34 36 33 33 31 33 34 36 36 38 39 37 38 40 43 47 47 50 53 53 47 38 34 36 35 36 36 34 35
6 26 30 34 34 33 35 35 34 34 31 37 38 37 41 41 39 39 41 46 48 54 53 54 47 42 40 42 39 37 37 37
3 8 22 31 32 33 34 35 34 36 34 32 34 39 42 44 41 40 39 38 46 48 51 49 50 46 42 41 41 38 38 38
8 10 16 23 30 33 33 33 34 35 37 35 35 31 37 39 42 43 40 37 37 42 41 45 45 44 41 36 35 36 35 35
8 5 10 19 23 29 33 34 34 35 36 39 36 34 33 35 36 39 41 42 41 40 40 41 43 41 40 41 38 36 34 34
6 6 6 8 17 23 29 32 33 34 36 36 36 37 39 38 37 38 39 41 42 43 42 42 42 41 43 39 37 38 40 40
7 8 9 6 7 16 24 27 32 36 37 38 35 36 37 39 38 39 40 39 40 39 41 41 39 39 38 37 36 38 38 42
Wind_Direction
206 203 196 193 196 222 229 197 203 201 204 211 225 218 211 208 207 192 174 180 173 167 165 166 167 173 172 173 163 161 161 168
191 195 194 187 204 218 214 195 201 193 189 194 195 191 189 182 177 172 164 161 165 165 158 159 173 176 171 168 159 172 175 162
176 186 188 189 207 220 209 193 188 184 190 189 182 173 171 172 154 155 163 161 160 158 166 163 175 164 165 170 172 186 181 175
171 180 190 190 209 219 209 189 181 180 186 177 172 161 157 154 161 169 170 170 163 168 166 176 173 173 181 183 190 188 184 183
175 178 188 194 200 219 208 185 180 181 189 182 173 161 158 160 162 162 162 165 168 175 175 178 186 189 202 199 195 183 194 192
172 179 190 198 192 202 202 188 184 185 188 178 173 169 169 170 168 165 175 176 176 175 185 189 191 204 203 193 190 192 192 206
175 177 184 191 195 201 199 189 183 188 191 189 188 184 180 176 171 179 184 191 180 184 190 190 198 201 201 206 205 208 209 204
175 168 175 185 192 201 194 193 189 193 192 196 198 198 195 188 183 187 190 187 188 193 199 195 196 201 205 207 212 220 220 225
179 175 177 185 192 201 192 192 194 193 193 198 201 202 203 201 195 191 191 193 195 201 211 212 203 211 205 210 210 218 232 238
186 180 178 185 193 196 207 193 199 199 198 201 203 205 207 206 200 198 198 201 206 203 208 208 211 218 222 217 221 228 234 240
189 185 178 184 193 199 210 200 199 202 202 201 204 206 209 210 209 206 208 211 211 208 209 214 219 221 224 226 228 233 238 241
180 182 180 185 188 202 209 207 196 200 205 203 204 207 209 208 208 211 216 213 211 213 212 213 221 224 228 229 233 236 238 241
202 178 175 176 188 196 206 208 203 204 202 205 208 211 212 213 213 217 220 218 214 218 216 214 216 231 234 235 234 238 240 243
257 173 176 177 189 192 203 208 201 203 210 203 204 206 208 213 216 218 223 223 221 221 222 223 225 232 235 241 240 241 246 249
231 198 187 183 189 196 201 209 203 203 211 214 213 210 210 211 213 218 219 222 219 226 226 224 226 231 237 237 240 244 249 254
162 209 212 196 193 199 203 210 211 206 201 214 221 217 215 215 215 219 217 220 223 223 225 224 227 229 230 233 236 242 250 252
255 166 225 212 209 203 203 207 218 210 208 209 210 215 219 222 218 219 219 220 222 222 223 222 224 228 233 241 247 241 243 248
34 6 311 239 221 217 211 209 212 216 211 215 214 212 213 215 218 219 221 219 222 225 227 230 232 236 240 240 237 242 247 253
19 4 339 295 265 228 216 214 212 218 217 213 215 215 217 215 213 217 220 222 224 224 226 228 227 227 229 232 237 243 247 251